Location: Pittsburgh
(40.4410°N, 79.9960°W)
Time: 23:18:20
(UTC-04:00)

BlueWalker 3 - Pass Details

Date: 19 March 2026
Orbit: 449 x 457 km, 53.2° (Epoch: 17 April)

Event Time Altitude Azimuth Distance (km) Brightness Sun altitude
Exits shadow 06:47:46 10° 252° (WSW) 1,603 3.8 -7.9°
Reaches altitude 10° 06:47:52 10° 250° (WSW) 1,590 3.8 -7.9°
Maximum altitude 06:48:48 11° 235° (SW) 1,538 3.9 -7.7°
Drops below altitude 10° 06:49:45 10° 220° (SW) 1,586 4.1 -7.5°
Sets 06:53:21 0° 181° (S) 2,450 5.4 -6.8°
